Location: Newark
(47.5333°N, 8.7000°E)
Time: 18:17:08
(UTC+00:00)

BEESAT 3 - Pass Details

Date: 28 November 2020
Orbit: 491 x 509 km, 64.9° (Epoch: 14 January)

Event Time Altitude Azimuth Distance (km) Brightness Sun altitude
Exits shadow 03:29:49 13° 54° (NE) 1,535 ? -32.9°
Drops below altitude 10° 03:30:22 10° 51° (NE) 1,736 ? -32.8°
Sets 03:32:38 0° 44° (NE) 2,626 ? -32.4°
